Terminal Aerodrome Forecast
Issued by NWS

Home | Current Version | Previous Version | Graphics & Text | Print | Product List | Glossary On
Versions: 1 2 3 4 5 6 7 8 9 10 11 12 13 14 15 16 17 18 19 20
650
FTUS43 KABR 202047 AAB
TAFMBG
TAF AMD
KMBG 202047Z 2021/2118 06015G18KT P6SM FEW060 SCT090 BKN110
     FM210200 03007KT P6SM OVC035
     FM211000 33005KT P6SM BKN070
     FM211200 31007KT P6SM SCT070
     FM211500 33011KT P6SM FEW070=

USA.gov is the U.S. government's official web portal to all federal, state and local government web resources and services.